Preview of NWS' New Version of Forecast
This preview is not operational and should not be used for support decisions.

Regional Weather Roundup (RWR)

Issued by National Weather Service (NWS)

                            
000
ASUS43 KLSX 221957
RWRMO 

WEATHER SUMMARY FOR MISSOURI
NATIONAL WEATHER SERVICE SPRINGFIELD MO
300 PM CDT WED MAY 22 2019

NOTE: "FAIR" INDICATES FEW OR NO CLOUDS BELOW 12,000 FEET WITH NO
       SIGNIFICANT WEATHER AND/OR OBSTRUCTIONS TO VISIBILITY.
       CURRENT SKY AND/OR WEATHER CONDITIONS ARE NOT AVAILABLE FOR
       CHILLICOTHE AND FARMINGTON.

MOZ001>031-035>038-043-044-053-054-222100-
...NORTHERN AND WESTERN MISSOURI...
  
CITY           SKY/WX    TMP DP  RH WIND       PRES   REMARKS
KANSAS CTY INT PTSUNNY   72  55  55 SW12G20   29.78R                  
LEE'S SUMMIT   PTSUNNY   73  60  63 SW15G25   29.79R                  
ST JOSEPH      CLOUDY    71  53  52 S16G25    29.77R                  
CHILLICOTHE      N/A     77  58  51 SW10G21   29.77R                  
     
$$
MOZ066>068-077>081-088>096-101>105-222100-
...SOUTHWEST MISSOURI...
  
CITY           SKY/WX    TMP DP  RH WIND       PRES   REMARKS
SPRINGFIELD    SUNNY     84  66  54 S22G32    29.81F                  
JOPLIN         PTSUNNY   81  69  67 S22G31    29.79R                  
BRANSON        MOSUNNY   82  66  57 S13G20    29.87F                  
               
$$
MOZ032>034-039>042-045>050-055>058-069>072-222100-
...CENTRAL MISSOURI...  
  
CITY           SKY/WX    TMP DP  RH WIND       PRES   REMARKS
COLUMBIA       NOT AVBL                                               
JEFFERSON CITY   N/A    N/A N/A N/A S12       29.80S                  
ROLLA          MOSUNNY   81  66  60 S21G30    29.86F                  
SEDALIA        MOSUNNY   76  67  73 SW17G24   29.80F                  
WHITEMAN AFB   CLOUDY    72  68  88 SW14      29.76                   
WARRENSBURG    PTSUNNY   73  64  73 S16G23    29.79S                  
               
$$
MOZ051-052-059>065-222100-
...EAST CENTRAL MISSOURI...
  
CITY           SKY/WX    TMP DP  RH WIND       PRES   REMARKS
ST LOUIS INTL  MOSUNNY   85  56  37 S13G26    29.87R                  
                   
$$
MOZ072>076-082>087-097>100-106>115-222100-
...SOUTH CENTRAL AND SOUTHEAST MISSOURI...
  
CITY           SKY/WX    TMP DP  RH WIND       PRES   REMARKS
CAPE GIRARDEAU PTSUNNY   81  71  71 SW10G18   29.94S                  
POPLAR BLUFF   PTSUNNY   80  73  79 S12       29.93F                  
WEST PLAINS    MOSUNNY   81  69  67 S13G26    29.92S                  
                                       
$$